Regional Weather Roundup
Issued by NWS New Orleans/Baton Rouge, LA

Home | Current Version | Previous Version | Graphics & Text | Print | Product List | Glossary On
Versions: 1 2 3 4 5 6 7 8 9 10 11 12 13 14 15 16 17 18 19 20 21 22 23 24 25 26 27 28 29 30 31 32 33 34 35 36 37 38 39 40 41 42 43 44 45 46 47 48 49 50
266
ASUS44 KLIX 240210
RWRLIX
NEW ORLEANS REGIONAL WEATHER ROUNDUP
NATIONAL WEATHER SERVICE NEW ORLEANS LA
900 PM CDT THU OCT 23 2014

NOTE: "FAIR" INDICATES FEW OR NO CLOUDS BELOW 12,000 FEET WITH NO
      SIGNIFICANT WEATHER AND/OR OBSTRUCTIONS TO VISIBILITY.
      SKY/WX - SKY CONDITION AND SIGNIFICANT WEATHER.
      TMP - AIR TEMPERATURE.     DP    - DEWPOINT TEMPERATURE.
      RH  - RELATIVE HUMIDITY.   PRES  - PRESSURE.
      HI  - HEAT INDEX.          WCI   - WIND CHILL INDEX.

*  THESE STATIONS ARE NOT NWS OR FAA STATIONS AND ARE NOT UNDER
   NWS QUALITY CONTROL.

LAZ038-040-048-061>063-065>067-069-240300-
SOUTHEAST LOUISIANA

CITY           SKY/WX    TMP DP  RH WIND       PRES   REMARKS
N.O. AUDUBON     N/A     66  58  75 MISG        N/A
N.O. INTL ARPT CLOUDY    66  51  58 CALM      30.07R
N.O. LAKEFRONT CLOUDY    70  49  47 CALM      30.08R
N.O. DOWNTOWN*   N/A     70  46  43 CALM      30.08R
SLIDELL        CLOUDY    63  53  70 CALM      30.08R
BATON ROUGE    CLEAR     60  52  74 CALM      30.10R
BOOTHVILLE     PTCLDY    69  58  67 NE5       30.07R
BELLE CHASSE   CLOUDY    60  54  80 CALM      30.07R
BOGALUSA*        N/A     60  49  67 CALM      30.10S
NEW ROADS*       N/A     56  52  85 N6        30.11R
GONZALES*        N/A     58  57  99 N5        30.08S
HAMMOND*       MOCLDY    61  50  67 CALM      30.10R
HOUMA*         CLOUDY    59  53  80 E3        30.07S
PORT FOURCHON* CLEAR     68  55  64 NE7       30.11R

$$

MSZ070-080>082-240300-
SOUTHERN MISSISSIPPI

CITY           SKY/WX    TMP DP  RH WIND       PRES   REMARKS
MCCOMB         PTCLDY    56  49  77 N9        30.11R
GULFPORT       CLOUDY    61  54  77 CALM      30.07R
BILOXI         CLOUDY    67  51  57 N3        30.06S
PASCAGOULA     CLOUDY    56  52  86 CALM      30.06R

$$

COASTAL OBSERVATIONS
LAKE AND NEARSHORE STATIONS

STATION/POSITION TIME  TEMP    WIND        PRES    WAVE
                       AIR SEA DIR/SP/G            HT/PER
                 (UTC) (F)     (DEG/KT/KT) (MB)    (FT/S)
PASCAGOULA       0200   64     330/  5/  5 1017.3
WAVELAND YACHT   0200   65     300/  4/  4 1017.6
GRAND ISLE       0200   68 73   60/  6/  9 1018.6
SOUTHWEST PASS   0200   71 81              1018.0
NEW CANAL        0200   69 71   CALM  /  1 1018.7
SHELL BEACH      0200   67 69  230/  2/  3 1018.2

OFFSHORE STATIONS

STATION/POSITION TIME  TEMP    WIND        PRES    WAVE
                       AIR SEA DIR/SP/G            HT/PER
                 (UTC) (F)     (DEG/KT/KT) (MB)    (FT/S)
64 S DAUPHIN ISL 0109   71 78   60/ 12/ 14 1018.3    3/ 5

$$




USA.gov is the U.S. government's official web portal to all federal, state and local government web resources and services.